Preview of NWS' New Version of Forecast
This preview is not operational and should not be used for support decisions.

Regional Weather Roundup (RWR)

Issued by National Weather Service (NWS)

                            
000
ASCA42 TJSJ 180210
RWRPR 
PUERTO RICO/U.S. VIRGIN ISLANDS HOURLY WEATHER ROUNDUP
NATIONAL WEATHER SERVICE SAN JUAN PR
1000 PM AST TUE SEP 17 2019

PRZ001>002-007>008-010-180300-
PUERTO RICO
  
CITY           SKY/WX    TMP DP  RH WIND       PRES   REMARKS
SAN JUAN LMM   PTCLDY    82  77  83 E3        29.92S HX  91           
CEIBA          PTCLDY    82  77  83 SE7       29.94S HX  91           
$$

VIZ001>002-180300-
U.S. VIRGIN ISLANDS
  
CITY           SKY/WX    TMP DP  RH WIND       PRES   REMARKS
CHARLOTTE AMA  CLEAR     84  73  70 E14       29.92S HX  91           
CHRISTIANSTED  PTCLDY    82  73  74 E15       29.93R                  
$$

HOURLY WEATHER ROUNDUP FOR THE NEWS MEDIA
  
CITY           SKY/WX    TMP DP  RH WIND       PRES   REMARKS
ORLANDO        FAIR      82  69  64 NE6       29.97R                  
NEW YORK       FAIR      65  55  70 E8        30.15S                  
NEWARK         FAIR      70  47  43 E5        30.14R                  
CHICAGO        MOCLDY    69  61  75 E7        30.12R                  
HARTFORD       CLOUDY    52  50  93 CALM      30.17R                  
BOSTON         CLOUDY    63  53  70 E7        30.18R                  
DALLAS         PTCLDY    86  69  56 SE8       29.92R HX  90           
PHILADELPHIA   FAIR      67  52  58 CALM      30.14R                  
LOS ANGELES    PTCLDY    71  63  75 W13       29.89S                  
WASHINGTON DC  FAIR      66  57  72 CALM      30.12R